GW0597 Weather Reports


time (UTC)temp
C
wind
direction
speed
KPH
gust
KPH
rain 1hr
cm
rain 24hr
cm
rain mn
cm
humidity
%
barometer
mb
20260509213100 17 285 3.2 20.9 0.00 1.70 0.89 58 1004.7
20260509211553 17 258 3.2 17.7 0.00 1.70 0.89 60 1004.7
20260509210100 17 258 3.2 17.7 0.00 1.70 0.89 60 1005.1
20260509204601 17 15 1.6 24.1 0.00 1.70 0.89 62 1005.4
20260509203108 17 143 3.2 16.1 0.00 1.70 0.89 65 1005.6
20260509201553 17 158 1.6 12.9 0.00 1.70 0.89 64 1005.7
20260509200053 17 128 3.2 17.7 0.00 1.70 0.89 63 1005.8
20260509194551 17 243 3.2 16.1 0.00 1.70 0.89 65 1006.2
20260509193054 17 157 3.2 17.7 0.00 1.70 0.89 63 1006.2
20260509191553 16 243 1.6 11.3 0.00 1.70 0.89 67 1006.4
20260509190055 16 146 4.8 22.5 0.00 1.70 0.89 66 1006.9
20260509184552 16 0 3.2 17.7 0.00 1.70 0.89 72 1006.5
20260509183053 16 248 3.2 16.1 0.00 1.70 0.89 70 1006.4
20260509181608 15 0 3.2 12.9 0.00 1.70 0.89 76 1006.7
20260509180115 13 65 1.6 12.9 0.00 1.70 0.89 80 1006.9
20260509174556 13 136 4.8 16.1 0.00 1.70 0.89 82 1007.2
20260509173107 12 0 1.6 8.0 0.00 1.70 0.89 86 1007.3
20260509171554 12 0 1.6 8.0 0.00 1.70 0.89 90 1007.5
20260509170053 11 0 0.0 4.8 0.00 1.70 0.89 90 1007.7
20260509164553 11 213 1.6 9.7 0.00 1.70 0.89 90 1007.7
20260509163055 11 0 0.0 4.8 0.00 1.70 0.89 91 1007.6
20260509161601 10 0 0.0 8.0 0.00 1.70 0.89 91 1007.7
20260509160052 11 192 0.0 4.8 0.00 1.70 0.89 93 1007.6
20260509154602 10 117 0.0 6.4 0.00 1.70 0.89 94 1007.6
20260509153107 10 0 0.0 8.0 0.00 1.70 0.89 94 1007.6
20260509151604 10 0 0.0 3.2 0.00 1.70 0.89 94 1007.7
20260509150056 9 0 0.0 6.4 0.00 1.70 0.89 94 1007.7
20260509144556 9 292 0.0 8.0 0.00 1.70 0.89 94 1007.7
20260509143108 9 217 0.0 6.4 0.00 1.70 0.89 95 1007.6
20260509141556 9 131 1.6 9.7 0.00 1.70 0.89 95 1007.6
20260509140054 9 181 1.6 8.0 0.00 1.70 0.89 95 1007.4
20260509134554 9 267 0.0 6.4 0.00 1.70 0.89 95 1007.5
20260509133106 8 110 0.0 4.8 0.00 1.70 0.89 95 1007.7
20260509131551 8 69 0.0 1.6 0.00 1.70 0.89 95 1007.8
20260509130056 8 69 0.0 3.2 0.00 1.70 0.89 95 1007.8
20260509124553 8 0 0.0 3.2 0.00 1.70 0.89 95 1008.0
20260509123052 8 0 0.0 3.2 0.00 1.70 0.89 95 1008.0
20260509121553 8 0 0.0 1.6 0.00 1.70 0.89 95 1008.2
20260509120055 8 257 0.0 1.6 0.00 1.70 0.89 95 1008.3
20260509114555 8 0 0.0 1.6 0.03 1.70 0.89 94 1008.2
20260509113052 8 0 0.0 1.6 0.03 1.70 0.89 94 1008.2
20260509111554 8 0 0.0 3.2 0.05 1.70 0.89 94 1008.2
20260509110052 8 0 0.0 0.0 0.13 1.70 0.89 94 1008.0
20260509104607 8 0 0.0 1.6 0.18 1.68 0.86 94 1008.3
20260509103104 8 0 0.0 1.6 0.25 1.68 0.86 94 1008.2
20260509101556 8 0 0.0 0.0 0.25 1.65 0.84 94 1008.2
20260509100051 8 0 0.0 1.6 0.23 1.57 0.76 94 1008.2
20260509094554 8 0 0.0 1.6 0.25 1.47 0.69 94 1008.4
20260509093054 8 158 0.0 4.8 0.18 1.42 0.61 94 1008.4
20260509091552 8 0 0.0 1.6 0.20 1.40 0.58 94 1008.4
20260509090058 8 126 1.6 6.4 0.20 1.32 0.53 94 1008.2
20260509084559 8 360 0.0 3.2 0.13 1.24 0.43 94 1008.5
20260509083054 8 0 0.0 0.0 0.15 1.24 0.43 94 1008.2
20260509081556 7 0 0.0 3.2 0.13 1.19 0.38 94 1008.1
20260509080051 7 0 0.0 1.6 0.10 1.14 0.33 94 1008.3
20260509074553 7 0 0.0 0.0 0.10 1.12 0.30 94 1008.4
20260509073059 8 0 0.0 1.6 0.13 1.09 0.28 94 1008.3
20260509071600 7 58 0.0 1.6 0.10 1.07 0.25 94 1008.5
20260509070059 8 58 0.0 1.6 0.08 1.04 0.23 94 1008.7
20260509064551 8 0 0.0 3.2 0.08 1.02 0.20 94 1008.9
20260509063111 8 0 0.0 4.8 0.03 0.97 0.15 93 1009.2
20260509061616 8 210 0.0 1.6 0.10 0.97 0.15 93 1009.3
20260509060112 8 0 0.0 3.2 0.10 0.97 0.15 93 1009.4
20260509054555 8 0 0.0 3.2 0.08 0.94 0.13 93 1009.7
20260509053055 8 136 0.0 4.8 0.08 0.94 0.13 93 1010.2
20260509051556 8 26 0.0 3.2 0.00 0.86 0.05 93 1010.4
20260509050057 8 76 0.0 3.2 0.05 0.86 0.05 93 1010.2
20260509044554 8 0 0.0 4.8 0.08 0.86 0.05 93 1010.3
20260509043053 8 23 0.0 3.2 0.10 0.86 0.05 93 1010.4
20260509041559 8 0 0.0 1.6 0.08 0.84 0.03 93 1010.6
20260509040054 8 0 0.0 1.6 0.08 0.81 0.00 93 1010.8
20260509034556 8 0 0.0 1.6 0.08 0.79 0.79 93 1010.8
20260509033056 8 0 0.0 1.6 0.13 0.76 0.76 92 1011.0
20260509031556 8 0 0.0 1.6 0.25 0.76 0.76 92 1010.9
20260509030059 8 0 0.0 3.2 0.36 0.74 0.74 92 1011.2
20260509024556 8 0 0.0 1.6 0.43 0.71 0.71 92 1011.3
20260509023100 8 0 0.0 1.6 0.46 0.64 0.64 91 1011.3
20260509021557 8 0 0.0 1.6 0.41 0.51 0.51 91 1011.4
20260509014558 8 0 0.0 3.2 0.23 0.28 0.28 91 1011.1
20260509013058 8 0 0.0 3.2 0.13 0.18 0.18 91 1011.1
20260509011554 9 0 0.0 1.6 0.05 0.10 0.10 90 1011.0
20260509010054 9 0 0.0 1.6 0.05 0.05 0.05 90 1010.7
20260509004602 9 0 0.0 0.0 0.05 0.05 0.05 90 1010.7
20260509003053 9 0 0.0 1.6 0.05 0.05 0.05 89 1010.7
20260509001554 10 0 0.0 0.0 0.05 0.05 0.05 89 1010.6
20260509000056 10 0 0.0 1.6 0.00 0.00 0.00 88 1010.4
20260508234557 10 0 0.0 1.6 0.00 0.00 0.00 87 1010.4
20260508233057 10 0 0.0 3.2 0.00 0.00 0.00 87 1010.2
20260508231605 10 0 0.0 4.8 0.00 0.00 0.00 86 1010.2
20260508230100 10 0 0.0 6.4 0.00 0.00 0.00 84 1010.1
20260508224601 10 68 1.6 11.3 0.00 0.00 0.00 82 1010.3
20260508223054 11 271 3.2 14.5 0.00 0.00 0.00 78 1010.0
20260508221559 11 148 0.0 14.5 0.00 0.00 0.00 76 1009.9
20260508220101 12 236 1.6 6.4 0.00 0.00 0.00 71 1010.0
20260508214558 12 229 1.6 14.5 0.00 0.00 0.00 71 1009.7